N5CSC Weather Reports


time (UTC)temp
F
wind
direction
speed
knots
gust
knots
rain 1hr
in
rain 24hr
in
rain mn
in
humidity
%
barometer
mb
20260505170035 77 166 2.6 6.1 0.00 0.00 0.00 78 1007.0
20260505164536 77 174 2.6 5.2 0.00 0.00 0.00 79 1007.1
20260505163030 76 174 3.5 6.1 0.00 0.00 0.00 80 1007.0
20260505161525 75 190 3.5 5.2 0.00 0.00 0.00 80 1007.2
20260505153027 74 180 1.7 7.0 0.00 0.00 0.00 81 1007.2
20260505151518 73 158 3.5 6.1 0.00 0.00 0.00 81 1007.0
20260505124503 71 167 2.6 9.6 0.00 0.00 0.00 82 1006.8
20260505123002 71 192 3.5 7.0 0.00 0.00 0.00 82 1006.7
20260505121504 70 184 3.5 7.0 0.00 0.00 0.00 82 1006.6
20260505114502 70 174 3.5 8.7 0.00 0.00 0.00 82 1006.2
20260505113100 70 191 3.5 7.0 0.00 0.00 0.00 82 1006.0
20260505111603 70 186 3.5 11.3 0.00 0.00 0.00 82 1006.1
20260505101555 70 169 2.6 7.0 0.00 0.00 0.00 82 1006.3
20260505100101 70 186 3.5 6.1 0.00 0.00 0.00 82 1006.4
20260505094557 70 187 0.9 4.3 0.00 0.00 0.00 82 1006.5
20260505093055 70 183 3.5 7.0 0.00 0.00 0.00 82 1006.5
20260505091552 70 171 2.6 4.3 0.00 0.00 0.00 82 1006.5
20260505090105 70 175 1.7 6.1 0.00 0.00 0.00 82 1006.5
20260505084550 69 175 1.7 7.0 0.00 0.00 0.00 81 1006.5
20260505083047 69 183 1.7 6.1 0.00 0.00 0.00 81 1007.1
20260505081548 69 175 1.7 4.3 0.00 0.00 0.00 81 1007.2
20260505080052 69 178 1.7 4.3 0.00 0.00 0.00 81 1007.3
20260505074543 69 186 1.7 3.5 0.00 0.00 0.00 81 1007.5
20260505073053 69 175 1.7 4.3 0.00 0.00 0.00 81 1007.7
20260505071537 69 184 1.7 4.3 0.00 0.00 0.00 80 1007.9
20260505070035 69 178 1.7 7.0 0.00 0.00 0.00 80 1008.1
20260505064534 69 169 2.6 6.1 0.00 0.00 0.00 80 1008.2
20260505063034 70 182 2.6 7.0 0.00 0.00 0.00 80 1008.2
20260505061530 70 174 2.6 7.0 0.00 0.00 0.00 79 1008.3
20260505060034 70 163 3.5 7.8 0.00 0.00 0.00 79 1008.5
20260505054532 70 175 3.5 7.8 0.00 0.00 0.00 78 1008.5
20260505053026 70 161 2.6 6.1 0.00 0.00 0.00 78 1008.4
20260505051525 71 175 3.5 7.0 0.00 0.00 0.00 77 1008.5
20260505041536 72 174 4.3 11.3 0.00 0.00 0.00 75 1008.6
20260505040018 73 166 2.6 8.7 0.00 0.00 0.00 74 1008.4
20260505034517 73 136 2.6 7.0 0.00 0.00 0.00 74 1008.3
20260505033018 74 169 3.5 6.1 0.00 0.00 0.00 73 1008.3
20260505031518 74 147 2.6 5.2 0.00 0.00 0.00 73 1008.4
20260505030016 74 163 1.7 4.3 0.00 0.00 0.00 72 1008.4
20260505024518 74 173 1.7 3.5 0.00 0.00 0.00 72 1008.3
20260505023016 74 174 0.9 3.5 0.00 0.00 0.00 71 1008.2
20260505021515 75 175 1.7 6.1 0.00 0.00 0.00 70 1008.0
20260505020018 75 166 1.7 4.3 0.00 0.00 0.00 69 1007.7
20260505014513 76 139 1.7 4.3 0.00 0.00 0.00 67 1007.6
20260505013016 76 178 0.0 1.7 0.00 0.00 0.00 66 1007.6
20260505011512 77 178 0.9 4.3 0.00 0.00 0.00 65 1007.6
20260505010011 77 173 1.7 5.2 0.00 0.00 0.00 64 1007.4
20260505004515 78 165 3.5 7.0 0.00 0.00 0.00 63 1007.2
20260505003009 79 166 2.6 7.0 0.00 0.00 0.00 62 1007.3
20260505001509 79 165 3.5 7.8 0.00 0.00 0.00 62 1007.5
20260505000008 80 111 2.6 8.7 0.00 0.00 0.00 61 1007.8
20260504234506 80 164 3.5 8.7 0.00 0.00 0.00 58 1007.8
20260504233004 80 168 4.3 9.6 0.00 0.00 0.00 58 1007.9
20260504231502 81 182 4.3 10.4 0.00 0.00 0.00 57 1008.1
20260504230104 81 160 3.5 8.7 0.00 0.00 0.00 58 1008.3
20260504224611 80 177 4.3 7.8 0.00 0.00 0.00 58 1008.4
20260504223059 80 186 2.6 8.7 0.00 0.00 0.00 57 1008.5
20260504221557 81 184 2.6 7.0 0.00 0.00 0.00 57 1008.6
20260504220059 81 173 4.3 8.7 0.00 0.00 0.00 58 1008.5
20260504214555 80 161 4.3 10.4 0.00 0.00 0.00 58 1008.6
20260504213123 80 163 3.5 10.4 0.00 0.00 0.00 58 1008.9
20260504211549 80 163 2.6 7.8 0.00 0.00 0.00 58 1009.4
20260504210049 80 178 3.5 8.7 0.00 0.00 0.00 59 1009.6
20260504204548 80 171 3.5 8.7 0.00 0.00 0.00 58 1009.9
20260504203049 80 199 3.5 7.8 0.00 0.00 0.00 59 1010.1
20260504201542 80 172 3.5 7.8 0.00 0.00 0.00 59 1010.3
20260504200040 80 194 5.2 11.3 0.00 0.00 0.00 58 1010.5
20260504194549 80 176 5.2 10.4 0.00 0.00 0.00 59 1010.6
20260504193049 79 176 4.3 8.7 0.00 0.00 0.00 59 1010.7
20260504191534 80 170 3.5 7.0 0.00 0.00 0.00 59 1010.9
20260504190033 80 149 2.6 7.8 0.00 0.00 0.00 60 1011.0
20260504184532 79 180 3.5 7.0 0.00 0.00 0.00 59 1011.6
20260504183030 79 191 3.5 9.6 0.00 0.00 0.00 61 1011.4
20260504181527 79 151 4.3 9.6 0.00 0.00 0.00 61 1011.7
20260504180022 79 162 4.3 11.3 0.00 0.00 0.00 62 1011.9
20260504174521 78 174 5.2 7.8 0.00 0.00 0.00 62 1012.3
20260504173032 78 184 3.5 9.6 0.00 0.00 0.00 63 1012.4
20260504171521 77 187 6.1 9.6 0.00 0.00 0.00 63 1012.6